| time (UTC) | temp F | wind direction | speed knots | gust knots | rain 1hr in | rain 24hr in | rain mn in | humidity % | barometer mb |
| 20260508023503 | 55 | 29 | 4.3 | 8.7 | 0.00 | 0.02 | 0.02 | 51 | 1013.2 |
| 20260508023024 | 55 | 24 | 4.3 | 8.7 | 0.00 | 0.02 | 0.02 | 52 | 1013.3 |
| 20260508022503 | 56 | 48 | 5.2 | 12.2 | 0.00 | 0.02 | 0.02 | 52 | 1013.4 |
| 20260508022003 | 56 | 33 | 6.1 | 12.2 | 0.00 | 0.02 | 0.02 | 52 | 1013.2 |
| 20260508021503 | 57 | 30 | 6.1 | 12.2 | 0.00 | 0.02 | 0.02 | 48 | 1013.0 |
| 20260508021003 | 57 | 15 | 6.1 | 12.2 | 0.00 | 0.02 | 0.02 | 48 | 1012.8 |
| 20260508020503 | 57 | 26 | 5.2 | 11.3 | 0.02 | 0.02 | 0.02 | 48 | 1012.8 |
| 20260508020003 | 57 | 20 | 6.1 | 12.2 | 0.02 | 0.02 | 0.02 | 49 | 1012.9 |
| 20260508015524 | 57 | 11 | 6.1 | 13.9 | 0.02 | 0.02 | 0.02 | 49 | 1012.9 |
| 20260508015024 | 58 | 5 | 6.1 | 13.9 | 0.02 | 0.02 | 0.02 | 48 | 1013.0 |
| 20260508014504 | 58 | 4 | 5.2 | 12.2 | 0.02 | 0.02 | 0.02 | 47 | 1012.8 |
| 20260508014003 | 60 | 19 | 2.6 | 9.6 | 0.02 | 0.02 | 0.02 | 48 | 1012.9 |
| 20260508013503 | 62 | 12 | 0.0 | 2.6 | 0.02 | 0.02 | 0.02 | 50 | 1012.5 |
| 20260508013003 | 62 | 22 | 0.0 | 1.7 | 0.02 | 0.02 | 0.02 | 48 | 1012.5 |
| 20260508012503 | 61 | 65 | 0.0 | 1.7 | 0.02 | 0.02 | 0.02 | 58 | 1012.5 |
| 20260508012003 | 60 | 67 | 0.0 | 1.7 | 0.02 | 0.02 | 0.02 | 58 | 1012.5 |
| 20260508011503 | 58 | 71 | 0.9 | 3.5 | 0.02 | 0.02 | 0.02 | 58 | 1012.5 |
| 20260508011003 | 58 | 181 | 1.7 | 3.5 | 0.02 | 0.02 | 0.02 | 52 | 1012.6 |
| 20260508010503 | 62 | 208 | 1.7 | 6.1 | 0.00 | 0.00 | 0.00 | 60 | 1013.0 |
| 20260508010003 | 63 | 352 | 1.7 | 6.1 | 0.00 | 0.00 | 0.00 | 47 | 1012.6 |
| 20260508005503 | 63 | 14 | 1.7 | 6.1 | 0.00 | 0.00 | 0.00 | 40 | 1012.4 |
| 20260508005003 | 64 | 35 | 1.7 | 5.2 | 0.00 | 0.00 | 0.00 | 39 | 1012.1 |
| 20260508004524 | 64 | 33 | 1.7 | 6.1 | 0.00 | 0.00 | 0.00 | 38 | 1012.1 |
| 20260508004004 | 65 | 6 | 2.6 | 6.1 | 0.00 | 0.00 | 0.00 | 37 | 1012.1 |
| 20260508003524 | 65 | 348 | 2.6 | 6.1 | 0.00 | 0.00 | 0.00 | 37 | 1012.2 |
| 20260508003024 | 65 | 6 | 2.6 | 6.1 | 0.00 | 0.00 | 0.00 | 37 | 1011.9 |
| 20260508002503 | 66 | 24 | 0.9 | 5.2 | 0.00 | 0.00 | 0.00 | 36 | 1012.2 |
| 20260508002003 | 68 | 12 | 0.9 | 5.2 | 0.00 | 0.00 | 0.00 | 35 | 1012.2 |
| 20260508001503 | 69 | 34 | 0.9 | 5.2 | 0.00 | 0.00 | 0.00 | 35 | 1012.4 |
| 20260508001003 | 69 | 49 | 0.0 | 3.5 | 0.00 | 0.00 | 0.00 | 33 | 1012.4 |
| 20260508000503 | 67 | 31 | 0.0 | 3.5 | 0.00 | 0.00 | 0.00 | 36 | 1012.1 |
| 20260508000003 | 67 | 67 | 0.0 | 1.7 | 0.00 | 0.00 | 0.00 | 35 | 1012.2 |
| 20260507235503 | 67 | 25 | 0.0 | 2.6 | 0.00 | 0.00 | 0.00 | 36 | 1012.2 |
| 20260507235003 | 66 | 27 | 0.0 | 5.2 | 0.00 | 0.00 | 0.00 | 37 | 1012.4 |
| 20260507234503 | 67 | 18 | 0.9 | 5.2 | 0.00 | 0.00 | 0.00 | 35 | 1012.4 |
| 20260507234024 | 68 | 322 | 0.9 | 3.5 | 0.00 | 0.00 | 0.00 | 35 | 1012.4 |
| 20260507233503 | 69 | 24 | 0.9 | 5.2 | 0.00 | 0.00 | 0.00 | 35 | 1012.4 |
| 20260507233003 | 68 | 51 | 0.9 | 5.2 | 0.00 | 0.00 | 0.00 | 38 | 1012.2 |
| 20260507232503 | 68 | 351 | 1.7 | 7.0 | 0.00 | 0.00 | 0.00 | 39 | 1012.5 |
| 20260507232003 | 68 | 267 | 3.5 | 7.0 | 0.00 | 0.00 | 0.00 | 38 | 1012.4 |
| 20260507231503 | 68 | 269 | 3.5 | 7.0 | 0.00 | 0.00 | 0.00 | 38 | 1012.4 |
| 20260507231003 | 68 | 282 | 2.6 | 7.0 | 0.00 | 0.00 | 0.00 | 40 | 1012.5 |
| 20260507230524 | 68 | 316 | 0.9 | 7.0 | 0.00 | 0.00 | 0.00 | 40 | 1012.6 |
| 20260507230003 | 67 | 24 | 0.0 | 2.6 | 0.00 | 0.00 | 0.00 | 36 | 1012.5 |
| 20260507225503 | 65 | 278 | 0.0 | 5.2 | 0.00 | 0.00 | 0.00 | 37 | 1012.5 |
| 20260507225024 | 64 | 347 | 1.7 | 7.8 | 0.00 | 0.00 | 0.00 | 44 | 1012.6 |
| 20260507224525 | 62 | 327 | 4.3 | 7.8 | 0.00 | 0.00 | 0.00 | 44 | 1012.6 |
| 20260507224004 | 59 | 274 | 4.3 | 7.8 | 0.00 | 0.00 | 0.00 | 52 | 1012.4 |
| 20260507223504 | 58 | 281 | 4.3 | 7.0 | 0.00 | 0.00 | 0.00 | 61 | 1012.7 |
| 20260507223025 | 59 | 304 | 4.3 | 7.8 | 0.00 | 0.00 | 0.00 | 57 | 1012.7 |
| 20260507222504 | 60 | 280 | 4.3 | 7.8 | 0.00 | 0.00 | 0.00 | 54 | 1012.4 |
| 20260507222004 | 63 | 316 | 4.3 | 8.7 | 0.00 | 0.00 | 0.00 | 46 | 1012.7 |
| 20260507221504 | 65 | 286 | 5.2 | 8.7 | 0.00 | 0.00 | 0.00 | 39 | 1012.7 |
| 20260507221025 | 65 | 265 | 7.0 | 9.6 | 0.00 | 0.00 | 0.00 | 37 | 1012.4 |
| 20260507220525 | 66 | 278 | 7.8 | 11.3 | 0.00 | 0.00 | 0.00 | 36 | 1012.5 |
| 20260507220004 | 67 | 264 | 6.1 | 11.3 | 0.00 | 0.00 | 0.00 | 36 | 1012.4 |
| 20260507215525 | 68 | 270 | 4.3 | 9.6 | 0.00 | 0.00 | 0.00 | 34 | 1012.5 |
| 20260507215004 | 69 | 160 | 3.5 | 7.0 | 0.00 | 0.00 | 0.00 | 32 | 1012.4 |
| 20260507214504 | 70 | 241 | 2.6 | 6.1 | 0.00 | 0.00 | 0.00 | 29 | 1012.2 |
| 20260507214004 | 70 | 206 | 1.7 | 7.0 | 0.00 | 0.00 | 0.00 | 31 | 1012.5 |
| 20260507213504 | 71 | 168 | 1.7 | 7.0 | 0.00 | 0.00 | 0.00 | 29 | 1012.1 |
| 20260507213004 | 72 | 240 | 2.6 | 7.0 | 0.00 | 0.00 | 0.00 | 29 | 1012.4 |
| 20260507212525 | 72 | 358 | 1.7 | 6.1 | 0.00 | 0.00 | 0.00 | 29 | 1012.5 |
| 20260507212025 | 72 | 255 | 1.7 | 6.1 | 0.00 | 0.00 | 0.00 | 28 | 1012.4 |
| 20260507211525 | 73 | 77 | 0.9 | 6.1 | 0.00 | 0.00 | 0.00 | 31 | 1012.5 |
| 20260507211004 | 72 | 92 | 1.7 | 6.1 | 0.00 | 0.00 | 0.00 | 32 | 1012.8 |
| 20260507210504 | 70 | 42 | 2.6 | 6.1 | 0.00 | 0.00 | 0.00 | 35 | 1012.5 |
| 20260507210005 | 71 | 27 | 0.9 | 5.2 | 0.00 | 0.00 | 0.00 | 33 | 1012.7 |
| 20260507205504 | 71 | 63 | 0.9 | 5.2 | 0.00 | 0.00 | 0.00 | 33 | 1012.8 |
| 20260507205025 | 70 | 115 | 1.7 | 5.2 | 0.00 | 0.00 | 0.00 | 32 | 1012.9 |
| 20260507204504 | 70 | 109 | 1.7 | 3.5 | 0.00 | 0.00 | 0.00 | 33 | 1012.8 |
| 20260507204004 | 68 | 250 | 0.9 | 3.5 | 0.00 | 0.00 | 0.00 | 34 | 1012.9 |
| 20260507203504 | 68 | 49 | 0.9 | 5.2 | 0.00 | 0.00 | 0.00 | 36 | 1012.8 |
| 20260507203004 | 69 | 264 | 0.9 | 5.2 | 0.00 | 0.00 | 0.00 | 33 | 1013.2 |
| 20260507202504 | 68 | 193 | 0.9 | 5.2 | 0.00 | 0.00 | 0.00 | 35 | 1013.2 |
| 20260507202004 | 68 | 43 | 1.7 | 5.2 | 0.00 | 0.00 | 0.00 | 36 | 1012.8 |
| 20260507201504 | 69 | 296 | 1.7 | 5.2 | 0.00 | 0.00 | 0.00 | 36 | 1013.0 |
| 20260507201004 | 68 | 78 | 0.9 | 5.2 | 0.00 | 0.00 | 0.00 | 38 | 1012.9 |
| 20260507200525 | 67 | 185 | 1.7 | 5.2 | 0.00 | 0.00 | 0.00 | 37 | 1013.2 |
| 20260507200025 | 68 | 106 | 1.7 | 6.1 | 0.00 | 0.00 | 0.00 | 40 | 1013.0 |
| 20260507195504 | 67 | 138 | 1.7 | 6.1 | 0.00 | 0.00 | 0.00 | 42 | 1013.0 |
| 20260507195025 | 67 | 277 | 1.7 | 6.1 | 0.00 | 0.00 | 0.00 | 39 | 1012.9 |
| 20260507194504 | 67 | 233 | 1.7 | 6.1 | 0.00 | 0.00 | 0.00 | 42 | 1012.9 |
| 20260507194004 | 67 | 248 | 1.7 | 5.2 | 0.00 | 0.00 | 0.00 | 39 | 1012.8 |
| 20260507193504 | 67 | 161 | 2.6 | 6.1 | 0.00 | 0.00 | 0.00 | 41 | 1013.3 |
| 20260507193025 | 67 | 247 | 2.6 | 7.0 | 0.00 | 0.00 | 0.00 | 41 | 1013.0 |
| 20260507192504 | 66 | 239 | 2.6 | 7.0 | 0.00 | 0.00 | 0.00 | 43 | 1013.2 |
| 20260507192004 | 65 | 261 | 3.5 | 7.8 | 0.00 | 0.00 | 0.00 | 41 | 1013.2 |
| 20260507191525 | 65 | 229 | 2.6 | 7.8 | 0.00 | 0.00 | 0.00 | 44 | 1013.2 |
| 20260507191004 | 66 | 224 | 2.6 | 6.1 | 0.00 | 0.00 | 0.00 | 43 | 1013.0 |
| 20260507190525 | 66 | 203 | 1.7 | 7.0 | 0.00 | 0.00 | 0.00 | 42 | 1013.2 |
| 20260507190005 | 65 | 244 | 1.7 | 7.0 | 0.00 | 0.00 | 0.00 | 42 | 1013.3 |
| 20260507185504 | 65 | 254 | 1.7 | 7.0 | 0.00 | 0.00 | 0.00 | 43 | 1013.6 |
| 20260507185025 | 65 | 229 | 1.7 | 7.0 | 0.00 | 0.00 | 0.00 | 43 | 1013.5 |
| 20260507184525 | 64 | 191 | 0.9 | 3.5 | 0.00 | 0.00 | 0.00 | 45 | 1013.3 |
| 20260507184004 | 64 | 148 | 0.9 | 2.6 | 0.00 | 0.00 | 0.00 | 44 | 1013.4 |
| 20260507183504 | 64 | 17 | 0.9 | 3.5 | 0.00 | 0.00 | 0.00 | 40 | 1013.5 |
| 20260507183004 | 65 | 159 | 0.9 | 3.5 | 0.00 | 0.00 | 0.00 | 39 | 1013.6 |
| 20260507182504 | 65 | 183 | 0.9 | 3.5 | 0.00 | 0.00 | 0.00 | 40 | 1013.4 |
| 20260507182025 | 64 | 267 | 1.7 | 5.2 | 0.00 | 0.00 | 0.00 | 41 | 1013.6 |
| 20260507181504 | 64 | 246 | 0.9 | 5.2 | 0.00 | 0.00 | 0.00 | 40 | 1013.5 |
| 20260507181004 | 63 | 214 | 0.0 | 3.5 | 0.00 | 0.00 | 0.00 | 40 | 1013.9 |
| 20260507180504 | 63 | 164 | 0.9 | 5.2 | 0.00 | 0.00 | 0.00 | 38 | 1013.9 |
| 20260507180004 | 64 | 163 | 0.9 | 5.2 | 0.00 | 0.00 | 0.00 | 40 | 1013.9 |
| 20260507175504 | 64 | 348 | 1.7 | 5.2 | 0.00 | 0.00 | 0.00 | 42 | 1013.9 |
| 20260507175004 | 63 | 272 | 2.6 | 6.1 | 0.00 | 0.00 | 0.00 | 44 | 1014.1 |
| 20260507174504 | 62 | 200 | 2.6 | 6.1 | 0.00 | 0.00 | 0.00 | 45 | 1014.2 |
| 20260507174004 | 60 | 286 | 2.6 | 6.1 | 0.00 | 0.00 | 0.00 | 48 | 1014.2 |
| 20260507173504 | 60 | 244 | 2.6 | 6.1 | 0.00 | 0.00 | 0.00 | 46 | 1013.9 |
| 20260507173004 | 60 | 243 | 2.6 | 7.0 | 0.00 | 0.00 | 0.00 | 47 | 1014.3 |
| 20260507172504 | 60 | 255 | 3.5 | 7.0 | 0.00 | 0.00 | 0.00 | 45 | 1014.1 |
| 20260507172004 | 60 | 276 | 2.6 | 6.1 | 0.00 | 0.00 | 0.00 | 48 | 1014.2 |
| 20260507171504 | 60 | 268 | 2.6 | 6.1 | 0.00 | 0.00 | 0.00 | 47 | 1014.1 |
| 20260507171025 | 60 | 165 | 1.7 | 5.2 | 0.00 | 0.00 | 0.00 | 46 | 1014.1 |
| 20260507170525 | 60 | 244 | 1.7 | 5.2 | 0.00 | 0.00 | 0.00 | 46 | 1014.1 |
| 20260507170004 | 59 | 212 | 2.6 | 3.5 | 0.00 | 0.00 | 0.00 | 45 | 1014.4 |
| 20260507165504 | 59 | 243 | 2.6 | 5.2 | 0.00 | 0.00 | 0.00 | 45 | 1014.3 |
| 20260507165004 | 58 | 258 | 2.6 | 5.2 | 0.00 | 0.00 | 0.00 | 45 | 1014.3 |
| 20260507164504 | 58 | 274 | 1.7 | 5.2 | 0.00 | 0.00 | 0.00 | 50 | 1014.3 |
| 20260507164025 | 57 | 9 | 1.7 | 2.6 | 0.00 | 0.00 | 0.00 | 49 | 1014.4 |
| 20260507163504 | 57 | 292 | 1.7 | 3.5 | 0.00 | 0.00 | 0.00 | 47 | 1014.6 |
| 20260507163025 | 57 | 19 | 1.7 | 5.2 | 0.00 | 0.00 | 0.00 | 46 | 1014.4 |
| 20260507162504 | 58 | 351 | 1.7 | 5.2 | 0.00 | 0.00 | 0.00 | 47 | 1014.3 |
| 20260507162025 | 57 | 282 | 1.7 | 2.6 | 0.00 | 0.00 | 0.00 | 48 | 1014.1 |
| 20260507161504 | 57 | 298 | 1.7 | 2.6 | 0.00 | 0.00 | 0.00 | 48 | 1014.1 |
| 20260507161004 | 57 | 43 | 0.9 | 3.5 | 0.00 | 0.00 | 0.00 | 49 | 1014.3 |
| 20260507160504 | 56 | 358 | 1.7 | 5.2 | 0.00 | 0.00 | 0.00 | 49 | 1014.2 |
| 20260507160004 | 56 | 319 | 2.6 | 5.2 | 0.00 | 0.00 | 0.00 | 48 | 1014.3 |
| 20260507155504 | 56 | 338 | 2.6 | 5.2 | 0.00 | 0.00 | 0.00 | 48 | 1014.3 |
| 20260507155025 | 56 | 329 | 2.6 | 5.2 | 0.00 | 0.00 | 0.00 | 48 | 1014.2 |
| 20260507154504 | 56 | 333 | 2.6 | 6.1 | 0.00 | 0.00 | 0.00 | 47 | 1014.1 |
| 20260507154004 | 56 | 329 | 2.6 | 6.1 | 0.00 | 0.00 | 0.00 | 47 | 1014.1 |
| 20260507153504 | 57 | 336 | 2.6 | 5.2 | 0.00 | 0.00 | 0.00 | 45 | 1013.9 |
| 20260507153004 | 58 | 14 | 3.5 | 9.6 | 0.00 | 0.00 | 0.00 | 45 | 1013.6 |
| 20260507152504 | 59 | 356 | 4.3 | 9.6 | 0.00 | 0.00 | 0.00 | 43 | 1013.7 |
| 20260507152004 | 61 | 355 | 4.3 | 9.6 | 0.00 | 0.00 | 0.00 | 41 | 1013.6 |
| 20260507151524 | 60 | 11 | 5.2 | 11.3 | 0.00 | 0.00 | 0.00 | 44 | 1013.6 |
| 20260507151004 | 59 | 24 | 5.2 | 13.0 | 0.00 | 0.00 | 0.00 | 44 | 1013.5 |
| 20260507150504 | 59 | 345 | 5.2 | 13.0 | 0.00 | 0.00 | 0.00 | 43 | 1013.4 |
| 20260507150004 | 58 | 22 | 5.2 | 11.3 | 0.00 | 0.00 | 0.00 | 46 | 1013.4 |
| 20260507145504 | 58 | 10 | 5.2 | 9.6 | 0.00 | 0.00 | 0.00 | 45 | 1013.3 |
| 20260507145004 | 58 | 8 | 5.2 | 9.6 | 0.00 | 0.00 | 0.00 | 47 | 1013.4 |
| 20260507144503 | 57 | 13 | 4.3 | 8.7 | 0.00 | 0.00 | 0.00 | 49 | 1013.2 |
| 20260507144004 | 57 | 36 | 3.5 | 7.0 | 0.00 | 0.00 | 0.00 | 49 | 1013.3 |
| 20260507143504 | 57 | 30 | 1.7 | 7.0 | 0.00 | 0.00 | 0.00 | 52 | 1013.4 |
| 20260507143004 | 56 | 44 | 0.9 | 3.5 | 0.00 | 0.00 | 0.00 | 57 | 1013.2 |
| 20260507142505 | 56 | 43 | 0.9 | 2.6 | 0.00 | 0.00 | 0.00 | 59 | 1013.0 |
| 20260507142004 | 56 | 54 | 1.7 | 5.2 | 0.00 | 0.00 | 0.00 | 58 | 1012.8 |
| 20260507141504 | 57 | 25 | 1.7 | 5.2 | 0.00 | 0.00 | 0.00 | 56 | 1012.9 |
| 20260507141004 | 58 | 1 | 0.9 | 3.5 | 0.00 | 0.00 | 0.00 | 55 | 1012.7 |
| 20260507140503 | 58 | 39 | 0.0 | 1.7 | 0.00 | 0.00 | 0.00 | 54 | 1012.7 |
| 20260507140004 | 58 | 126 | 0.0 | 0.9 | 0.00 | 0.00 | 0.00 | 57 | 1012.6 |
| 20260507135504 | 56 | 0 | 0.0 | 0.0 | 0.00 | 0.00 | 0.00 | 56 | 1012.4 |
| 20260507135004 | 54 | 0 | 0.0 | 0.9 | 0.00 | 0.00 | 0.00 | 61 | 1012.6 |
| 20260507134504 | 54 | 0 | 0.0 | 0.9 | 0.00 | 0.00 | 0.00 | 63 | 1012.4 |
| 20260507134004 | 53 | 73 | 0.0 | 0.9 | 0.00 | 0.00 | 0.00 | 67 | 1012.4 |
| 20260507133504 | 52 | 0 | 0.0 | 0.9 | 0.00 | 0.00 | 0.00 | 68 | 1012.4 |
| 20260507133003 | 51 | 0 | 0.0 | 0.9 | 0.00 | 0.00 | 0.00 | 71 | 1012.1 |
| 20260507132525 | 51 | 89 | 0.0 | 0.9 | 0.00 | 0.00 | 0.00 | 72 | 1012.4 |
| 20260507132004 | 50 | 0 | 0.0 | 0.0 | 0.00 | 0.00 | 0.00 | 71 | 1012.1 |
| 20260507131504 | 50 | 0 | 0.0 | 0.0 | 0.00 | 0.00 | 0.00 | 71 | 1012.2 |
| 20260507131003 | 49 | 0 | 0.0 | 0.0 | 0.00 | 0.00 | 0.00 | 72 | 1012.1 |
| 20260507130503 | 50 | 0 | 0.0 | 0.9 | 0.00 | 0.00 | 0.00 | 72 | 1012.1 |
| 20260507130025 | 50 | 0 | 0.0 | 1.7 | 0.00 | 0.00 | 0.00 | 70 | 1012.2 |
| 20260507125503 | 51 | 98 | 0.0 | 1.7 | 0.00 | 0.00 | 0.00 | 69 | 1011.9 |
| 20260507125004 | 51 | 65 | 0.9 | 3.5 | 0.00 | 0.00 | 0.00 | 66 | 1011.9 |
| 20260507124504 | 51 | 65 | 0.9 | 3.5 | 0.00 | 0.00 | 0.00 | 66 | 1011.8 |
| 20260507124003 | 50 | 50 | 0.9 | 3.5 | 0.00 | 0.00 | 0.00 | 68 | 1011.8 |
| 20260507123503 | 50 | 30 | 0.0 | 1.7 | 0.00 | 0.00 | 0.00 | 71 | 1011.9 |
| 20260507123003 | 50 | 59 | 0.9 | 3.5 | 0.00 | 0.00 | 0.00 | 72 | 1011.8 |
| 20260507122504 | 50 | 52 | 0.9 | 3.5 | 0.00 | 0.00 | 0.00 | 72 | 1011.7 |
| 20260507122004 | 50 | 17 | 0.9 | 2.6 | 0.00 | 0.00 | 0.00 | 71 | 1011.7 |
| 20260507121504 | 50 | 63 | 0.9 | 2.6 | 0.00 | 0.00 | 0.00 | 72 | 1011.6 |
| 20260507121003 | 51 | 63 | 0.9 | 2.6 | 0.00 | 0.00 | 0.00 | 72 | 1011.8 |
| 20260507120504 | 51 | 0 | 0.0 | 3.5 | 0.00 | 0.00 | 0.00 | 70 | 1011.3 |
| 20260507120004 | 51 | 55 | 0.9 | 3.5 | 0.00 | 0.00 | 0.00 | 69 | 1011.1 |
| 20260507115504 | 51 | 302 | 1.7 | 3.5 | 0.00 | 0.00 | 0.00 | 68 | 1011.0 |
| 20260507115004 | 51 | 347 | 0.9 | 3.5 | 0.00 | 0.00 | 0.00 | 71 | 1011.1 |
| 20260507114504 | 51 | 11 | 1.7 | 5.2 | 0.00 | 0.00 | 0.00 | 73 | 1011.1 |
| 20260507114004 | 51 | 61 | 2.6 | 7.0 | 0.00 | 0.00 | 0.00 | 72 | 1010.9 |
| 20260507113524 | 52 | 343 | 4.3 | 8.7 | 0.00 | 0.00 | 0.00 | 69 | 1010.9 |
| 20260507113004 | 52 | 249 | 6.1 | 8.7 | 0.00 | 0.00 | 0.00 | 69 | 1010.9 |
| 20260507112503 | 53 | 261 | 5.2 | 9.6 | 0.00 | 0.00 | 0.00 | 68 | 1010.8 |
| 20260507112025 | 53 | 268 | 4.3 | 9.6 | 0.00 | 0.00 | 0.00 | 66 | 1010.8 |
| 20260507111504 | 53 | 277 | 3.5 | 6.1 | 0.00 | 0.00 | 0.00 | 61 | 1010.8 |
| 20260507111003 | 53 | 265 | 2.6 | 6.1 | 0.00 | 0.00 | 0.00 | 61 | 1010.5 |
| 20260507110503 | 53 | 314 | 1.7 | 5.2 | 0.00 | 0.00 | 0.00 | 61 | 1011.1 |
| 20260507110024 | 53 | 320 | 2.6 | 7.0 | 0.00 | 0.00 | 0.00 | 60 | 1011.1 |
| 20260507105503 | 53 | 263 | 3.5 | 7.0 | 0.00 | 0.00 | 0.00 | 59 | 1011.0 |
| 20260507105004 | 53 | 293 | 3.5 | 7.0 | 0.00 | 0.00 | 0.00 | 59 | 1010.9 |
| 20260507104504 | 53 | 314 | 2.6 | 6.1 | 0.00 | 0.00 | 0.00 | 60 | 1010.9 |
| 20260507104004 | 54 | 343 | 2.6 | 6.1 | 0.00 | 0.00 | 0.00 | 59 | 1010.9 |
| 20260507103504 | 54 | 265 | 2.6 | 6.1 | 0.00 | 0.00 | 0.00 | 58 | 1010.8 |
| 20260507103004 | 55 | 296 | 2.6 | 7.8 | 0.00 | 0.00 | 0.00 | 57 | 1011.1 |
| 20260507102524 | 55 | 279 | 2.6 | 7.8 | 0.00 | 0.00 | 0.00 | 56 | 1010.8 |
| 20260507102003 | 54 | 26 | 1.7 | 5.2 | 0.00 | 0.00 | 0.00 | 57 | 1010.7 |
| 20260507101503 | 55 | 321 | 1.7 | 2.6 | 0.00 | 0.00 | 0.00 | 58 | 1010.4 |
| 20260507101004 | 56 | 196 | 0.9 | 3.5 | 0.00 | 0.00 | 0.00 | 56 | 1010.4 |
| 20260507100504 | 56 | 135 | 2.6 | 7.8 | 0.00 | 0.00 | 0.00 | 53 | 1010.4 |
| 20260507100004 | 55 | 345 | 3.5 | 7.8 | 0.00 | 0.00 | 0.00 | 57 | 1010.8 |
| 20260507095503 | 56 | 250 | 2.6 | 7.8 | 0.00 | 0.00 | 0.00 | 53 | 1010.9 |
| 20260507095004 | 56 | 341 | 1.7 | 7.8 | 0.00 | 0.00 | 0.00 | 49 | 1010.9 |
| 20260507094503 | 56 | 19 | 1.7 | 5.2 | 0.00 | 0.00 | 0.00 | 48 | 1010.9 |
| 20260507094003 | 57 | 52 | 1.7 | 7.0 | 0.00 | 0.00 | 0.00 | 49 | 1010.7 |
| 20260507093503 | 58 | 54 | 2.6 | 9.6 | 0.00 | 0.00 | 0.00 | 47 | 1010.4 |
| 20260507093003 | 58 | 47 | 4.3 | 9.6 | 0.00 | 0.00 | 0.00 | 46 | 1010.2 |
| 20260507092504 | 57 | 32 | 3.5 | 9.6 | 0.00 | 0.00 | 0.00 | 47 | 1010.5 |
| 20260507092004 | 55 | 18 | 1.7 | 7.8 | 0.00 | 0.00 | 0.00 | 49 | 1010.6 |
| 20260507091524 | 53 | 0 | 0.0 | 0.0 | 0.00 | 0.00 | 0.00 | 54 | 1010.5 |
| 20260507091003 | 52 | 0 | 0.0 | 0.0 | 0.00 | 0.00 | 0.00 | 56 | 1010.5 |
| 20260507090504 | 53 | 0 | 0.0 | 0.0 | 0.00 | 0.00 | 0.00 | 55 | 1010.6 |
| 20260507090004 | 54 | 0 | 0.0 | 2.6 | 0.00 | 0.00 | 0.00 | 53 | 1010.2 |
| 20260507085524 | 54 | 0 | 0.9 | 3.5 | 0.00 | 0.00 | 0.00 | 53 | 1010.1 |
| 20260507085024 | 56 | 59 | 0.9 | 3.5 | 0.00 | 0.00 | 0.00 | 51 | 1009.9 |
| 20260507084503 | 58 | 16 | 0.9 | 6.1 | 0.00 | 0.00 | 0.00 | 44 | 1009.8 |
| 20260507084003 | 58 | 101 | 3.5 | 8.7 | 0.00 | 0.00 | 0.00 | 44 | 1009.9 |
| 20260507083503 | 57 | 282 | 4.3 | 8.7 | 0.00 | 0.00 | 0.00 | 45 | 1009.4 |
| 20260507083004 | 57 | 283 | 5.2 | 8.7 | 0.00 | 0.00 | 0.00 | 45 | 1009.0 |
| 20260507082504 | 56 | 275 | 4.3 | 7.0 | 0.00 | 0.00 | 0.00 | 46 | 1009.3 |
| 20260507082004 | 55 | 268 | 3.5 | 7.0 | 0.00 | 0.00 | 0.00 | 48 | 1009.0 |
| 20260507081504 | 55 | 266 | 3.5 | 6.1 | 0.00 | 0.00 | 0.00 | 51 | 1009.0 |
| 20260507081003 | 54 | 262 | 2.6 | 6.1 | 0.00 | 0.00 | 0.00 | 53 | 1009.1 |
| 20260507080503 | 53 | 273 | 2.6 | 5.2 | 0.00 | 0.00 | 0.00 | 55 | 1009.1 |
| 20260507080004 | 53 | 273 | 2.6 | 3.5 | 0.00 | 0.00 | 0.00 | 56 | 1008.9 |
| 20260507075503 | 53 | 275 | 2.6 | 3.5 | 0.00 | 0.00 | 0.00 | 57 | 1009.0 |
| 20260507075003 | 52 | 268 | 2.6 | 3.5 | 0.00 | 0.00 | 0.00 | 58 | 1009.0 |
| 20260507074504 | 51 | 272 | 2.6 | 3.5 | 0.00 | 0.00 | 0.00 | 59 | 1009.3 |
| 20260507074003 | 50 | 264 | 1.7 | 2.6 | 0.00 | 0.00 | 0.00 | 60 | 1009.1 |
| 20260507073503 | 49 | 269 | 1.7 | 2.6 | 0.00 | 0.00 | 0.00 | 60 | 1009.1 |
| 20260507073004 | 49 | 243 | 0.9 | 1.7 | 0.00 | 0.00 | 0.00 | 61 | 1009.3 |
| 20260507072524 | 48 | 168 | 0.9 | 1.7 | 0.00 | 0.00 | 0.00 | 60 | 1009.3 |
| 20260507072004 | 49 | 147 | 0.0 | 0.9 | 0.00 | 0.00 | 0.00 | 60 | 1009.3 |
| 20260507071504 | 49 | 121 | 0.0 | 0.9 | 0.00 | 0.00 | 0.00 | 59 | 1009.0 |
| 20260507071024 | 48 | 142 | 0.0 | 0.9 | 0.00 | 0.00 | 0.00 | 61 | 1008.9 |
| 20260507070503 | 49 | 0 | 0.9 | 0.9 | 0.00 | 0.00 | 0.00 | 59 | 1008.9 |
| 20260507070007 | 49 | 163 | 0.9 | 0.9 | 0.00 | 0.00 | 0.00 | 58 | 1008.9 |
| 20260507065503 | 49 | 158 | 0.9 | 1.7 | 0.00 | 0.00 | 0.00 | 59 | 1008.8 |
| 20260507065003 | 49 | 164 | 0.9 | 1.7 | 0.00 | 0.00 | 0.00 | 59 | 1008.5 |
| 20260507064504 | 49 | 151 | 0.9 | 0.9 | 0.00 | 0.00 | 0.00 | 58 | 1008.8 |
| 20260507064003 | 49 | 131 | 0.9 | 0.9 | 0.00 | 0.00 | 0.00 | 57 | 1008.7 |
| 20260507063524 | 49 | 160 | 0.9 | 0.9 | 0.00 | 0.00 | 0.00 | 57 | 1008.8 |
| 20260507063003 | 49 | 152 | 0.0 | 0.9 | 0.00 | 0.00 | 0.00 | 57 | 1008.9 |
| 20260507062503 | 49 | 0 | 0.0 | 0.0 | 0.00 | 0.00 | 0.00 | 57 | 1008.7 |
| 20260507062003 | 48 | 0 | 0.0 | 0.9 | 0.00 | 0.00 | 0.00 | 57 | 1008.6 |
| 20260507061503 | 48 | 0 | 0.0 | 0.9 | 0.00 | 0.00 | 0.00 | 58 | 1008.8 |
| 20260507061003 | 49 | 106 | 0.0 | 0.9 | 0.00 | 0.00 | 0.00 | 56 | 1008.8 |
| 20260507060503 | 50 | 66 | 0.0 | 1.7 | 0.00 | 0.00 | 0.00 | 56 | 1008.6 |
| 20260507060004 | 50 | 196 | 0.0 | 1.7 | 0.00 | 0.00 | 0.00 | 56 | 1008.8 |
| 20260507055524 | 49 | 274 | 0.0 | 1.7 | 0.00 | 0.00 | 0.00 | 56 | 1008.6 |
| 20260507055003 | 49 | 56 | 0.9 | 1.7 | 0.00 | 0.00 | 0.00 | 56 | 1008.9 |
| 20260507054503 | 48 | 154 | 0.9 | 1.7 | 0.00 | 0.00 | 0.00 | 55 | 1008.8 |
| 20260507054003 | 49 | 126 | 0.0 | 1.7 | 0.00 | 0.00 | 0.00 | 54 | 1008.6 |
| 20260507053503 | 50 | 0 | 0.9 | 1.7 | 0.00 | 0.00 | 0.00 | 53 | 1008.7 |
| 20260507053004 | 51 | 153 | 0.9 | 1.7 | 0.00 | 0.00 | 0.00 | 52 | 1008.8 |
| 20260507052503 | 51 | 148 | 0.9 | 0.9 | 0.00 | 0.00 | 0.00 | 52 | 1008.7 |
| 20260507052003 | 51 | 145 | 0.9 | 0.9 | 0.00 | 0.00 | 0.00 | 53 | 1008.9 |
| 20260507051503 | 51 | 159 | 0.0 | 0.9 | 0.00 | 0.00 | 0.00 | 54 | 1008.7 |
| 20260507051003 | 50 | 135 | 0.0 | 0.9 | 0.00 | 0.00 | 0.00 | 54 | 1008.7 |
| 20260507050503 | 51 | 141 | 0.0 | 0.9 | 0.00 | 0.00 | 0.00 | 52 | 1008.8 |
| 20260507050003 | 51 | 148 | 0.0 | 0.9 | 0.00 | 0.00 | 0.00 | 54 | 1008.7 |
| 20260507045524 | 51 | 0 | 0.0 | 0.9 | 0.00 | 0.00 | 0.00 | 53 | 1008.8 |
| 20260507045003 | 51 | 0 | 0.0 | 0.9 | 0.00 | 0.00 | 0.00 | 51 | 1008.8 |
| 20260507044503 | 52 | 135 | 0.9 | 0.9 | 0.00 | 0.00 | 0.00 | 50 | 1009.0 |
| 20260507044003 | 52 | 152 | 0.9 | 0.9 | 0.00 | 0.00 | 0.00 | 50 | 1009.0 |
| 20260507043503 | 53 | 148 | 0.9 | 0.9 | 0.00 | 0.00 | 0.00 | 49 | 1008.9 |
| 20260507043003 | 53 | 160 | 0.9 | 1.7 | 0.00 | 0.00 | 0.00 | 49 | 1009.1 |
| 20260507042503 | 53 | 157 | 0.9 | 1.7 | 0.00 | 0.00 | 0.00 | 48 | 1009.0 |
| 20260507042003 | 54 | 246 | 0.9 | 1.7 | 0.00 | 0.00 | 0.00 | 48 | 1009.1 |
| 20260507041503 | 54 | 251 | 1.7 | 1.7 | 0.00 | 0.00 | 0.00 | 47 | 1009.0 |
| 20260507041003 | 54 | 247 | 1.7 | 2.6 | 0.00 | 0.00 | 0.00 | 47 | 1009.1 |
| 20260507040503 | 55 | 257 | 1.7 | 2.6 | 0.00 | 0.00 | 0.00 | 46 | 1009.0 |
| 20260507040004 | 56 | 246 | 1.7 | 2.6 | 0.00 | 0.00 | 0.00 | 45 | 1008.9 |
| 20260507035503 | 57 | 248 | 1.7 | 2.6 | 0.00 | 0.00 | 0.00 | 44 | 1009.0 |
| 20260507035003 | 57 | 244 | 1.7 | 2.6 | 0.00 | 0.00 | 0.00 | 43 | 1008.8 |
| 20260507034503 | 58 | 243 | 1.7 | 2.6 | 0.00 | 0.00 | 0.00 | 42 | 1008.8 |
| 20260507034004 | 60 | 248 | 1.7 | 2.6 | 0.00 | 0.00 | 0.00 | 41 | 1008.9 |
| 20260507033503 | 60 | 255 | 2.6 | 3.5 | 0.00 | 0.00 | 0.00 | 40 | 1008.8 |
| 20260507033024 | 61 | 253 | 2.6 | 3.5 | 0.00 | 0.00 | 0.00 | 40 | 1008.8 |
| 20260507032503 | 62 | 257 | 3.5 | 3.5 | 0.00 | 0.00 | 0.00 | 39 | 1008.7 |
| 20260507032003 | 62 | 253 | 3.5 | 5.2 | 0.00 | 0.00 | 0.00 | 39 | 1008.6 |
| 20260507031524 | 62 | 261 | 3.5 | 7.0 | 0.00 | 0.00 | 0.00 | 39 | 1008.7 |
| 20260507031004 | 63 | 269 | 4.3 | 7.0 | 0.00 | 0.00 | 0.00 | 38 | 1008.9 |
| 20260507030503 | 63 | 264 | 4.3 | 7.0 | 0.00 | 0.00 | 0.00 | 37 | 1008.8 |
| 20260507030003 | 63 | 266 | 5.2 | 7.8 | 0.00 | 0.00 | 0.00 | 37 | 1008.5 |
| 20260507025524 | 64 | 263 | 5.2 | 7.8 | 0.00 | 0.00 | 0.00 | 37 | 1008.6 |
| 20260507025003 | 64 | 253 | 5.2 | 7.8 | 0.00 | 0.00 | 0.00 | 36 | 1008.7 |
| 20260507024524 | 64 | 269 | 5.2 | 7.8 | 0.00 | 0.00 | 0.00 | 36 | 1008.6 |
| 20260507024003 | 64 | 273 | 5.2 | 7.8 | 0.00 | 0.00 | 0.00 | 36 | 1008.7 |